When you browse on this site, cookies collect data to enhance your experience and personalize the content and advertising you see.
Visit our Privacy Policy to learn more. By continuing to use the site, you agree to this use of cookies and data.
  • In Latvia
  • List of Countries
  • For 7 days
  • Water Temperature
  • Weather Map
  • Weather Widgets
  • user-avatar
    Login

    Hourly Weather Zielone

    Today, 23 February, Sunday

    Time Temperature Precipitation Wind Pressure Humidity
    00:00 +6°C° 0.1 mm 9 mps 745 mmHg 66%
    01:00 +6°C° 0.1 mm 9 mps 745 mmHg 72%
    02:00 +5°C° 0.5 mm 8 mps 745 mmHg 75%
    03:00 +4°C° 0.5 mm 8 mps 745 mmHg 79%
    04:00 +3°C° 0.5 mm 7 mps 744 mmHg 82%
    05:00 +3°C° 0.9 mm 7 mps 744 mmHg 81%
    06:00 +3°C° 0.9 mm 7 mps 745 mmHg 79%
    07:00 +3°C° 0.9 mm 7 mps 745 mmHg 78%
    08:00 +2°C° 0.1 mm 8 mps 745 mmHg 74%
    09:00 +4°C° 0.1 mm 8 mps 745 mmHg 71%
    10:00 +3°C° 0.1 mm 9 mps 745 mmHg 67%
    11:00 +4°C° 0.1 mm 8 mps 744 mmHg 72%
    12:00 +4°C° 0.1 mm 8 mps 744 mmHg 78%
    13:00 +3°C° 0.1 mm 7 mps 744 mmHg 83%
    14:00 +3°C° 0.1 mm 6 mps 742 mmHg 85%
    15:00 +3°C° 0.1 mm 5 mps 741 mmHg 86%
    16:00 +4°C° 0.1 mm 4 mps 739 mmHg 88%
    17:00 +4°C° 1.8 mm 3 mps 738 mmHg 91%
    18:00 +4°C° 1.8 mm 3 mps 736 mmHg 94%
    19:00 +5°C° 1.8 mm 2 mps 735 mmHg 96%
    20:00 +5°C° 0.6 mm 4 mps 734 mmHg 93%
    21:00 +6°C° 0.6 mm 5 mps 733 mmHg 90%
    22:00 +5°C° 0.6 mm 7 mps 732 mmHg 87%
    23:00 +4°C° 1 mm 8 mps 733 mmHg 88%

    Tomorrow, 24 February, Monday

    Time Temperature Precipitation Wind Pressure Humidity
    00:00 +2°C° 1 mm 10 mps 734 mmHg 90%
    01:00 +1°C° 1 mm 11 mps 736 mmHg 91%
    02:00 +1°C° 0.5 mm 11 mps 737 mmHg 87%
    03:00 +1°C° 0.5 mm 10 mps 739 mmHg 82%
    04:00 +1°C° 0.5 mm 10 mps 740 mmHg 77%
    05:00 0°C° 0.3 mm 10 mps 742 mmHg 79%
    06:00 0°C° 0.3 mm 10 mps 743 mmHg 80%
    07:00 0°C° 0.3 mm 9 mps 744 mmHg 82%
    08:00 0°C° 0 mm 9 mps 745 mmHg 79%
    09:00 +1°C° 0 mm 9 mps 746 mmHg 77%
    10:00 +1°C° 0 mm 9 mps 746 mmHg 74%
    11:00 +1°C° 0 mm 8 mps 746 mmHg 74%
    12:00 +2°C° 0 mm 8 mps 747 mmHg 73%
    13:00 +3°C° 0 mm 7 mps 747 mmHg 72%
    14:00 +3°C° 0 mm 7 mps 747 mmHg 71%
    15:00 +3°C° 0 mm 6 mps 747 mmHg 70%
    16:00 +3°C° 0 mm 6 mps 747 mmHg 69%
    17:00 +3°C° 0 mm 5 mps 746 mmHg 71%
    18:00 +2°C° 0 mm 5 mps 746 mmHg 74%
    19:00 +1°C° 0 mm 4 mps 746 mmHg 76%
    20:00 +1°C° 0 mm 4 mps 745 mmHg 77%
    21:00 +1°C° 0 mm 4 mps 745 mmHg 77%
    22:00 +1°C° 0 mm 4 mps 744 mmHg 78%
    23:00 +1°C° 0.1 mm 4 mps 743 mmHg 80%

    Day after tomorrow, 25 February, Tuesday

    Time Temperature Precipitation Wind Pressure Humidity
    00:00 +1°C° 0.1 mm 5 mps 742 mmHg 83%
    01:00 +1°C° 0.1 mm 5 mps 741 mmHg 86%
    02:00 +2°C° 0.2 mm 6 mps 739 mmHg 84%
    03:00 +3°C° 0.2 mm 7 mps 738 mmHg 82%
    04:00 +2°C° 0.2 mm 8 mps 737 mmHg 80%
    05:00 +4°C° 0.7 mm 8 mps 736 mmHg 82%
    06:00 +5°C° 0.7 mm 9 mps 736 mmHg 84%
    07:00 +5°C° 0.7 mm 9 mps 735 mmHg 86%
    08:00 +6°C° 0.1 mm 9 mps 735 mmHg 85%
    09:00 +6°C° 0.1 mm 8 mps 735 mmHg 83%
    10:00 +7°C° 0.1 mm 8 mps 735 mmHg 81%
    11:00 +8°C° 0.1 mm 7 mps 735 mmHg 80%
    12:00 +8°C° 0.1 mm 6 mps 735 mmHg 79%
    13:00 +8°C° 0.1 mm 6 mps 735 mmHg 78%
    14:00 +8°C° 0.1 mm 6 mps 735 mmHg 76%
    15:00 +8°C° 0.1 mm 6 mps 734 mmHg 74%
    16:00 +9°C° 0.1 mm 6 mps 734 mmHg 73%
    17:00 +8°C° 0.4 mm 5 mps 734 mmHg 78%
    18:00 +7°C° 0.4 mm 5 mps 734 mmHg 83%
    19:00 +6°C° 0.4 mm 4 mps 734 mmHg 88%
    20:00 +6°C° 0.5 mm 4 mps 734 mmHg 82%
    21:00 +5°C° 0.5 mm 5 mps 734 mmHg 75%
    22:00 +5°C° 0.5 mm 5 mps 734 mmHg 69%
    23:00 +3°C° 0 mm 5 mps 734 mmHg 70%

    26 February, Wednesday

    Time Temperature Precipitation Wind Pressure Humidity
    00:00 +3°C° 0 mm 4 mps 734 mmHg 71%
    01:00 +3°C° 0 mm 4 mps 734 mmHg 72%
    02:00 +1°C° 0 mm 4 mps 734 mmHg 73%
    03:00 +1°C° 0 mm 4 mps 733 mmHg 74%
    04:00 +2°C° 0 mm 3 mps 733 mmHg 76%
    05:00 +2°C° 0 mm 3 mps 733 mmHg 76%
    06:00 +1°C° 0 mm 3 mps 733 mmHg 77%
    07:00 +1°C° 0 mm 3 mps 732 mmHg 78%
    08:00 +2°C° 0 mm 3 mps 732 mmHg 73%
    09:00 +4°C° 0 mm 4 mps 732 mmHg 69%
    10:00 +5°C° 0 mm 4 mps 731 mmHg 65%
    11:00 +5°C° 0 mm 4 mps 731 mmHg 62%
    12:00 +6°C° 0 mm 4 mps 731 mmHg 60%
    13:00 +7°C° 0 mm 4 mps 731 mmHg 58%
    14:00 +7°C° 0 mm 4 mps 731 mmHg 59%
    15:00 +7°C° 0 mm 3 mps 731 mmHg 61%
    16:00 +7°C° 0 mm 3 mps 731 mmHg 63%
    17:00 +5°C° 0 mm 3 mps 731 mmHg 67%
    18:00 +4°C° 0 mm 3 mps 732 mmHg 72%
    19:00 +4°C° 0 mm 3 mps 732 mmHg 76%
    20:00 +3°C° 0 mm 3 mps 733 mmHg 78%
    21:00 +1°C° 0 mm 4 mps 733 mmHg 79%
    22:00 +1°C° 0 mm 5 mps 733 mmHg 80%
    23:00 +1°C° 0 mm 5 mps 734 mmHg 82%

    27 February, Thursday

    Time Temperature Precipitation Wind Pressure Humidity
    00:00 0°C° 0 mm 4 mps 734 mmHg 83%
    01:00 0°C° 0 mm 4 mps 734 mmHg 85%
    02:00 0°C° 0 mm 4 mps 735 mmHg 88%
    03:00 0°C° 0 mm 5 mps 735 mmHg 92%
    04:00 -1°C° 0 mm 5 mps 736 mmHg 95%
    05:00 0°C° 0 mm 5 mps 736 mmHg 90%
    06:00 0°C° 0 mm 5 mps 737 mmHg 85%
    07:00 0°C° 0 mm 5 mps 737 mmHg 81%
    08:00 -1°C° 0 mm 6 mps 738 mmHg 76%
    09:00 0°C° 0 mm 7 mps 739 mmHg 71%
    10:00 0°C° 0 mm 8 mps 739 mmHg 66%
    11:00 0°C° 0 mm 8 mps 740 mmHg 65%
    12:00 0°C° 0 mm 8 mps 740 mmHg 64%
    13:00 0°C° 0 mm 8 mps 740 mmHg 63%
    14:00 0°C° 0 mm 7 mps 741 mmHg 64%
    15:00 0°C° 0 mm 7 mps 741 mmHg 65%
    16:00 +1°C° 0 mm 6 mps 742 mmHg 65%
    17:00 0°C° 0 mm 5 mps 742 mmHg 68%
    18:00 -1°C° 0 mm 4 mps 743 mmHg 71%
    19:00 0°C° 0 mm 3 mps 743 mmHg 73%
    20:00 -1°C° 0 mm 3 mps 743 mmHg 74%
    21:00 -1°C° 0 mm 3 mps 743 mmHg 75%
    22:00 -1°C° 0 mm 2 mps 744 mmHg 76%
    23:00 -1°C° 0 mm 2 mps 743 mmHg 77%

    28 February, Friday

    Time Temperature Precipitation Wind Pressure Humidity
    00:00 -1°C° 0 mm 3 mps 743 mmHg 78%
    01:00 -1°C° 0 mm 3 mps 743 mmHg 78%
    02:00 -1°C° 0 mm 3 mps 742 mmHg 79%
    03:00 -2°C° 0 mm 4 mps 742 mmHg 80%
    04:00 -2°C° 0 mm 4 mps 742 mmHg 81%
    05:00 -2°C° 0 mm 5 mps 742 mmHg 78%
    06:00 -1°C° 0 mm 5 mps 741 mmHg 75%
    07:00 -2°C° 0 mm 6 mps 741 mmHg 72%
    08:00 -1°C° 0 mm 7 mps 741 mmHg 73%
    09:00 0°C° 0 mm 7 mps 740 mmHg 74%
    10:00 0°C° 0 mm 8 mps 740 mmHg 75%
    11:00 +2°C° 0 mm 8 mps 740 mmHg 72%
    12:00 +4°C° 0 mm 8 mps 739 mmHg 70%
    13:00 +5°C° 0 mm 8 mps 739 mmHg 67%
    14:00 +5°C° 0 mm 8 mps 739 mmHg 70%
    15:00 +6°C° 0 mm 7 mps 739 mmHg 72%
    16:00 +6°C° 0 mm 7 mps 739 mmHg 75%
    17:00 +6°C° 0 mm 7 mps 739 mmHg 78%
    18:00 +5°C° 0 mm 7 mps 739 mmHg 81%
    19:00 +5°C° 0 mm 7 mps 739 mmHg 84%
    20:00 +5°C° 0 mm 7 mps 739 mmHg 83%
    21:00 +5°C° 0 mm 7 mps 739 mmHg 83%
    22:00 +6°C° 0 mm 7 mps 740 mmHg 82%
    23:00 +5°C° 0 mm 6 mps 739 mmHg 82%
    Show more